Location: Ecklingerode
(51.5036°N, 10.3122°E)
Time: 02:01:58
(UTC+00:00)

MOS 1 Rocket - Pass Details

Date: 29 October 2020
Orbit: 615 x 829 km, 97.4° (Epoch: 23 November)

Event Time Altitude Azimuth Distance (km) Brightness Sun altitude
Rises 18:00:27 0° 16° (NNE) 3,031 6.5 -19.7°
Reaches altitude 10° 18:02:40 10° 20° (NNE) 2,142 5.6 -20.1°
Maximum altitude 18:07:19 58° 100° (E) 836 3.3 -20.8°
Drops below altitude 10° 18:12:12 10° 180° (S) 2,261 5.9 -21.6°
Sets 18:14:36 0° 184° (S) 3,215 6.7 -21.9°
